Location: Sternwarte_Laufen
(47.9344°N, 12.9346°E)
Time: 15:15:58
(UTC+02:00)

ISS - Pass Details

Date: 29 March 2017
Orbit: 399 x 409 km, 51.6° (Epoch: 29 March)

Event Time Altitude Azimuth Distance (km) Brightness Sun altitude
Rises 20:04:37 0° 208° (SSW) 2,299 0.2 -5.9°
Reaches altitude 10° 20:06:59 10° 191° (SSW) 1,446 -1.0 -6.2°
Maximum altitude 20:09:31 21° 140° (SE) 960 -2.4 -6.7°
Drops below altitude 10° 20:12:04 10° 88° (E) 1,458 -1.6 -7.1°
Enters shadow 20:12:24 - 85° (E) 1,568 -1.5 -7.1°
